TimeCDT,TemperatureF,Dew PointF,Humidity,Sea Level PressureIn,VisibilityMPH,Wind Direction,Wind SpeedMPH,Gust SpeedMPH,PrecipitationIn,Events,Conditions,WindDirDegrees,DateUTC
12:15 AM,74.3,72.0,92,29.81,7.0,Calm,Calm,-,N/A,Rain,Light Rain,0,2013-06-27 05:15:00
12:35 AM,74.3,72.0,92,29.81,10.0,Calm,Calm,-,0.01,,Mostly Cloudy,0,2013-06-27 05:35:00
1:15 AM,74.3,72.5,94,29.81,5.0,Calm,Calm,-,N/A,,Mostly Cloudy,0,2013-06-27 06:15:00
1:35 AM,74.3,72.5,94,29.81,7.0,Calm,Calm,-,N/A,,Mostly Cloudy,0,2013-06-27 06:35:00
1:55 AM,74.3,72.5,94,29.81,10.0,SSE,3.5,-,N/A,,Scattered Clouds,160,2013-06-27 06:55:00
2:15 AM,72.5,70.7,94,29.81,7.0,Calm,Calm,-,N/A,,Clear,0,2013-06-27 07:15:00
2:35 AM,72.0,70.2,94,29.81,7.0,Calm,Calm,-,N/A,,Clear,0,2013-06-27 07:35:00
2:55 AM,71.8,70.0,94,29.81,5.0,Calm,Calm,-,N/A,,Clear,0,2013-06-27 07:55:00
3:15 AM,70.2,68.4,94,29.82,5.0,SW,3.5,-,N/A,,Clear,220,2013-06-27 08:15:00
3:35 AM,70.7,68.9,94,29.82,7.0,SSW,4.6,-,N/A,,Clear,210,2013-06-27 08:35:00
3:55 AM,71.8,70.0,94,29.82,7.0,SW,4.6,-,N/A,,Clear,230,2013-06-27 08:55:00
4:15 AM,71.8,70.0,94,29.81,10.0,SW,4.6,-,N/A,,Clear,230,2013-06-27 09:15:00
4:35 AM,71.8,69.8,93,29.81,10.0,SW,5.8,-,N/A,,Clear,230,2013-06-27 09:35:00
4:55 AM,71.8,69.8,93,29.81,10.0,SW,4.6,-,N/A,,Clear,230,2013-06-27 09:55:00
5:15 AM,71.8,69.8,93,29.82,10.0,WSW,4.6,-,N/A,,Clear,250,2013-06-27 10:15:00
5:35 AM,69.6,67.8,94,29.83,7.0,West,8.1,-,N/A,,Clear,260,2013-06-27 10:35:00
5:55 AM,71.8,70.0,94,29.83,7.0,WSW,6.9,-,N/A,,Clear,250,2013-06-27 10:55:00
6:15 AM,71.8,69.8,93,29.84,7.0,WSW,6.9,-,N/A,,Clear,250,2013-06-27 11:15:00
6:35 AM,71.8,69.8,93,29.85,10.0,WSW,4.6,-,N/A,,Clear,250,2013-06-27 11:35:00
6:55 AM,74.3,72.0,92,29.84,10.0,WSW,3.5,-,N/A,,Clear,250,2013-06-27 11:55:00
7:15 AM,74.3,71.8,92,29.84,10.0,West,4.6,-,N/A,,Clear,260,2013-06-27 12:15:00
7:35 AM,74.3,71.2,90,29.85,10.0,West,8.1,-,N/A,,Clear,270,2013-06-27 12:35:00
7:55 AM,75.4,71.6,88,29.85,10.0,West,4.6,-,N/A,,Clear,270,2013-06-27 12:55:00
8:15 AM,77.0,72.0,84,29.85,10.0,WNW,8.1,-,N/A,,Clear,290,2013-06-27 13:15:00
8:35 AM,79.3,73.9,83,29.86,10.0,WNW,6.9,-,N/A,,Clear,290,2013-06-27 13:35:00
8:55 AM,79.3,73.0,81,29.85,10.0,WNW,6.9,-,N/A,,Clear,300,2013-06-27 13:55:00
9:15 AM,79.3,72.5,79,29.86,10.0,West,5.8,-,N/A,,Clear,270,2013-06-27 14:15:00
9:35 AM,81.9,74.1,77,29.86,10.0,WSW,6.9,-,N/A,,Clear,250,2013-06-27 14:35:00
9:55 AM,81.9,73.6,76,29.85,10.0,WNW,5.8,-,N/A,,Clear,290,2013-06-27 14:55:00
10:15 AM,81.9,73.4,75,29.84,10.0,West,9.2,-,N/A,,Clear,270,2013-06-27 15:15:00
10:35 AM,81.9,73.4,75,29.84,10.0,WSW,8.1,-,N/A,,Clear,250,2013-06-27 15:35:00
10:55 AM,82.4,73.2,74,29.84,10.0,West,10.4,-,N/A,,Clear,270,2013-06-27 15:55:00
11:15 AM,84.4,72.9,68,29.84,10.0,West,11.5,-,N/A,,Clear,260,2013-06-27 16:15:00
11:35 AM,84.4,72.7,68,29.84,10.0,West,11.5,-,N/A,,Clear,260,2013-06-27 16:35:00
11:55 AM,84.4,72.0,66,29.84,10.0,WSW,11.5,-,N/A,,Clear,240,2013-06-27 16:55:00
12:15 PM,84.4,71.8,66,29.85,10.0,WSW,9.2,-,N/A,,Scattered Clouds,250,2013-06-27 17:15:00
12:35 PM,85.5,72.0,64,29.84,10.0,WSW,10.4,-,N/A,,Scattered Clouds,240,2013-06-27 17:35:00
12:55 PM,85.3,72.3,65,29.84,10.0,WSW,12.7,-,N/A,,Clear,250,2013-06-27 17:55:00
1:15 PM,85.6,69.8,59,29.84,10.0,WSW,10.4,-,N/A,,Clear,240,2013-06-27 18:15:00
1:35 PM,86.5,69.6,57,29.83,10.0,WSW,10.4,-,N/A,,Scattered Clouds,240,2013-06-27 18:35:00
1:55 PM,86.9,71.1,59,29.82,10.0,WSW,12.7,17.3,N/A,,Clear,250,2013-06-27 18:55:00
2:15 PM,86.9,70.5,58,29.82,10.0,SW,13.8,18.4,N/A,,Scattered Clouds,230,2013-06-27 19:15:00
2:35 PM,86.9,70.0,57,29.82,10.0,WSW,16.1,19.6,N/A,,Mostly Cloudy,240,2013-06-27 19:35:00
2:55 PM,86.2,70.5,59,29.80,10.0,WSW,16.1,-,N/A,,Mostly Cloudy,240,2013-06-27 19:55:00
3:15 PM,86.9,70.7,58,29.79,10.0,WSW,16.1,19.6,N/A,,Scattered Clouds,240,2013-06-27 20:15:00
3:35 PM,86.9,70.0,57,29.79,10.0,West,18.4,24.2,N/A,,Scattered Clouds,260,2013-06-27 20:35:00
3:55 PM,86.9,69.1,55,29.78,10.0,WSW,19.6,27.6,N/A,,Clear,240,2013-06-27 20:55:00
4:15 PM,87.1,69.3,55,29.78,10.0,WSW,17.3,21.9,N/A,,Clear,250,2013-06-27 21:15:00
4:35 PM,86.9,62.2,43,29.77,10.0,West,19.6,27.6,N/A,,Clear,280,2013-06-27 21:35:00
4:55 PM,86.0,59.4,40,29.77,10.0,West,17.3,32.2,N/A,,Clear,280,2013-06-27 21:55:00
5:15 PM,85.6,61.7,44,29.77,10.0,West,21.9,29.9,N/A,,Clear,280,2013-06-27 22:15:00
5:35 PM,85.6,57.9,39,29.77,10.0,West,15.0,32.2,N/A,,Clear,280,2013-06-27 22:35:00
5:55 PM,84.4,58.5,41,29.77,10.0,West,16.1,24.2,N/A,,Clear,270,2013-06-27 22:55:00
6:15 PM,84.4,61.5,46,29.77,10.0,West,12.7,24.2,N/A,,Clear,270,2013-06-27 23:15:00
6:35 PM,84.4,61.7,46,29.76,10.0,West,17.3,24.2,N/A,,Clear,270,2013-06-27 23:35:00
6:55 PM,84.2,62.4,48,29.76,10.0,West,18.4,25.3,N/A,,Clear,270,2013-06-27 23:55:00
7:15 PM,81.9,61.5,50,29.77,10.0,West,12.7,20.7,N/A,,Clear,270,2013-06-28 00:15:00
7:35 PM,81.9,63.3,53,29.77,10.0,West,11.5,17.3,N/A,,Clear,270,2013-06-28 00:35:00
7:55 PM,80.4,63.3,56,29.78,10.0,West,10.4,-,N/A,,Clear,270,2013-06-28 00:55:00
8:15 PM,79.3,62.1,55,29.78,10.0,West,10.4,17.3,N/A,,Clear,270,2013-06-28 01:15:00
8:35 PM,79.3,64.0,59,29.78,10.0,West,8.1,-,N/A,,Clear,270,2013-06-28 01:35:00
8:55 PM,77.0,62.2,60,29.78,10.0,West,9.2,-,N/A,,Clear,270,2013-06-28 01:55:00
9:15 PM,77.0,61.9,59,29.78,10.0,West,9.2,-,N/A,,Clear,270,2013-06-28 02:15:00
9:35 PM,75.6,61.5,62,29.79,10.0,West,8.1,-,N/A,,Clear,270,2013-06-28 02:35:00
9:55 PM,74.3,61.7,65,29.79,10.0,West,6.9,-,N/A,,Clear,270,2013-06-28 02:55:00
10:15 PM,74.3,62.6,67,29.79,10.0,West,8.1,-,N/A,,Clear,270,2013-06-28 03:15:00
10:35 PM,74.3,63.0,68,29.79,10.0,West,6.9,-,N/A,,Clear,260,2013-06-28 03:35:00
10:55 PM,73.9,63.9,71,29.79,10.0,West,8.1,-,N/A,,Clear,260,2013-06-28 03:55:00
11:15 PM,71.8,62.6,73,29.79,10.0,WSW,6.9,-,N/A,,Clear,250,2013-06-28 04:15:00
11:35 PM,70.2,62.2,76,29.80,10.0,WSW,6.9,-,N/A,,Clear,250,2013-06-28 04:35:00
11:55 PM,69.3,62.6,79,29.81,10.0,WSW,6.9,-,N/A,,Clear,250,2013-06-28 04:55:00